Stündliche Wetter Çaycuma

Heute, 25 Oktober, Sonntag

Zeit Temperatur Niederschläge Wind Luftdruck Luftfeuchtigkeit
00:00 +21°C° 0 mm 1 m/S 757 mmHg 46%
01:00 +20°C° 0 mm 1 m/S 757 mmHg 45%
02:00 +20°C° 0 mm 1 m/S 757 mmHg 44%
03:00 +20°C° 0 mm 1 m/S 757 mmHg 44%
04:00 +20°C° 0 mm 1 m/S 757 mmHg 44%
05:00 +19°C° 0 mm 1 m/S 757 mmHg 44%
06:00 +21°C° 0 mm 1 m/S 757 mmHg 42%
07:00 +22°C° 0 mm 1 m/S 757 mmHg 41%
08:00 +23°C° 0 mm 1 m/S 757 mmHg 39%
09:00 +26°C° 0 mm 1 m/S 757 mmHg 35%
10:00 +28°C° 0 mm 1 m/S 757 mmHg 30%
11:00 +31°C° 0 mm 1 m/S 756 mmHg 26%
12:00 +31°C° 0 mm 1 m/S 756 mmHg 27%
13:00 +31°C° 0 mm 2 m/S 756 mmHg 28%
14:00 +31°C° 0 mm 2 m/S 755 mmHg 30%
15:00 +28°C° 0 mm 2 m/S 755 mmHg 37%
16:00 +26°C° 0 mm 2 m/S 755 mmHg 43%
17:00 +24°C° 0 mm 1 m/S 755 mmHg 50%
18:00 +24°C° 0 mm 1 m/S 755 mmHg 46%
19:00 +23°C° 0 mm 2 m/S 755 mmHg 43%
20:00 +23°C° 0 mm 2 m/S 755 mmHg 39%
21:00 +23°C° 0 mm 2 m/S 755 mmHg 37%
22:00 +23°C° 0 mm 2 m/S 755 mmHg 34%
23:00 +23°C° 0 mm 2 m/S 755 mmHg 32%

Morgen, 26 Oktober, Montag

Zeit Temperatur Niederschläge Wind Luftdruck Luftfeuchtigkeit
00:00 +23°C° 0 mm 2 m/S 755 mmHg 32%
01:00 +21°C° 0 mm 2 m/S 755 mmHg 32%
02:00 +21°C° 0 mm 2 m/S 755 mmHg 31%
03:00 +21°C° 0 mm 2 m/S 755 mmHg 32%
04:00 +21°C° 0 mm 2 m/S 755 mmHg 33%
05:00 +20°C° 0 mm 2 m/S 755 mmHg 34%
06:00 +21°C° 0 mm 2 m/S 755 mmHg 34%
07:00 +23°C° 0 mm 2 m/S 755 mmHg 34%
08:00 +24°C° 0 mm 2 m/S 755 mmHg 35%
09:00 +26°C° 0 mm 2 m/S 755 mmHg 32%
10:00 +28°C° 0 mm 3 m/S 755 mmHg 30%
11:00 +29°C° 0 mm 3 m/S 755 mmHg 28%
12:00 +29°C° 0 mm 3 m/S 755 mmHg 33%
13:00 +28°C° 0 mm 3 m/S 755 mmHg 38%
14:00 +27°C° 0 mm 4 m/S 755 mmHg 43%
15:00 +25°C° 0 mm 3 m/S 755 mmHg 51%
16:00 +23°C° 0 mm 2 m/S 755 mmHg 59%
17:00 +20°C° 0 mm 2 m/S 755 mmHg 68%
18:00 +20°C° 0.1 mm 2 m/S 756 mmHg 70%
19:00 +19°C° 0.1 mm 2 m/S 756 mmHg 72%
20:00 +18°C° 0.1 mm 2 m/S 756 mmHg 74%
21:00 +18°C° 0 mm 2 m/S 757 mmHg 75%
22:00 +18°C° 0 mm 2 m/S 757 mmHg 75%
23:00 +18°C° 0 mm 2 m/S 757 mmHg 76%

übermorgen, 27 Oktober, Dienstag

Zeit Temperatur Niederschläge Wind Luftdruck Luftfeuchtigkeit
00:00 +17°C° 0 mm 2 m/S 757 mmHg 77%
01:00 +18°C° 0 mm 1 m/S 757 mmHg 77%
02:00 +18°C° 0 mm 1 m/S 757 mmHg 77%
03:00 +18°C° 0 mm 1 m/S 757 mmHg 78%
04:00 +16°C° 0 mm 1 m/S 757 mmHg 78%
05:00 +16°C° 0 mm 1 m/S 757 mmHg 78%
06:00 +18°C° 0 mm 1 m/S 757 mmHg 74%
07:00 +19°C° 0 mm 1 m/S 757 mmHg 70%
08:00 +20°C° 0 mm 1 m/S 758 mmHg 66%
09:00 +22°C° 0 mm 1 m/S 758 mmHg 60%
10:00 +24°C° 0 mm 1 m/S 758 mmHg 53%
11:00 +26°C° 0 mm 1 m/S 758 mmHg 46%
12:00 +26°C° 0 mm 2 m/S 757 mmHg 47%
13:00 +26°C° 0 mm 2 m/S 757 mmHg 48%
14:00 +26°C° 0 mm 3 m/S 756 mmHg 49%
15:00 +24°C° 0 mm 3 m/S 756 mmHg 60%
16:00 +21°C° 0 mm 2 m/S 756 mmHg 70%
17:00 +19°C° 0 mm 2 m/S 756 mmHg 81%
18:00 +19°C° 0 mm 2 m/S 756 mmHg 81%
19:00 +18°C° 0 mm 2 m/S 756 mmHg 81%
20:00 +18°C° 0 mm 2 m/S 756 mmHg 82%
21:00 +18°C° 0 mm 2 m/S 756 mmHg 79%
22:00 +18°C° 0 mm 2 m/S 756 mmHg 76%
23:00 +18°C° 0 mm 2 m/S 755 mmHg 73%

28 Oktober, Mittwoch

Zeit Temperatur Niederschläge Wind Luftdruck Luftfeuchtigkeit
00:00 +17°C° 0 mm 2 m/S 755 mmHg 69%
01:00 +18°C° 0 mm 1 m/S 755 mmHg 65%
02:00 +18°C° 0 mm 1 m/S 755 mmHg 61%
03:00 +18°C° 0 mm 1 m/S 755 mmHg 59%
04:00 +18°C° 0 mm 1 m/S 755 mmHg 57%
05:00 +18°C° 0 mm 1 m/S 755 mmHg 56%
06:00 +19°C° 0 mm 1 m/S 755 mmHg 53%
07:00 +20°C° 0 mm 1 m/S 755 mmHg 50%
08:00 +21°C° 0 mm 1 m/S 755 mmHg 47%
09:00 +23°C° 0 mm 2 m/S 755 mmHg 44%
10:00 +25°C° 0 mm 2 m/S 755 mmHg 40%
11:00 +27°C° 0 mm 2 m/S 756 mmHg 37%
12:00 +27°C° 0 mm 2 m/S 755 mmHg 41%
13:00 +26°C° 0 mm 3 m/S 755 mmHg 45%
14:00 +26°C° 0 mm 3 m/S 755 mmHg 50%
15:00 +24°C° 0 mm 2 m/S 755 mmHg 61%
16:00 +23°C° 0 mm 2 m/S 755 mmHg 73%
17:00 +20°C° 0 mm 2 m/S 755 mmHg 85%
18:00 +20°C° 0 mm 1 m/S 755 mmHg 86%
19:00 +20°C° 0 mm 1 m/S 756 mmHg 87%
20:00 +19°C° 0 mm 1 m/S 756 mmHg 87%
21:00 +19°C° 0 mm 1 m/S 756 mmHg 85%
22:00 +19°C° 0 mm 1 m/S 756 mmHg 83%
23:00 +18°C° 0 mm 2 m/S 756 mmHg 81%

29 Oktober, Donnerstag

Zeit Temperatur Niederschläge Wind Luftdruck Luftfeuchtigkeit
00:00 +18°C° 0 mm 2 m/S 756 mmHg 81%
01:00 +17°C° 0 mm 2 m/S 756 mmHg 81%
02:00 +18°C° 0 mm 1 m/S 755 mmHg 81%
03:00 +18°C° 0 mm 1 m/S 756 mmHg 80%
04:00 +18°C° 0 mm 1 m/S 756 mmHg 79%
05:00 +16°C° 0 mm 1 m/S 756 mmHg 78%
06:00 +18°C° 0 mm 1 m/S 756 mmHg 75%
07:00 +19°C° 0 mm 1 m/S 756 mmHg 71%
08:00 +20°C° 0 mm 1 m/S 756 mmHg 68%
09:00 +20°C° 0 mm 2 m/S 756 mmHg 66%
10:00 +23°C° 0 mm 2 m/S 757 mmHg 65%
11:00 +24°C° 0 mm 3 m/S 757 mmHg 63%
12:00 +22°C° 0.2 mm 3 m/S 757 mmHg 65%
13:00 +22°C° 0.2 mm 3 m/S 757 mmHg 67%
14:00 +21°C° 0.2 mm 3 m/S 757 mmHg 69%
15:00 +20°C° 0.3 mm 3 m/S 757 mmHg 75%
16:00 +19°C° 0.3 mm 3 m/S 757 mmHg 82%
17:00 +18°C° 0.3 mm 2 m/S 757 mmHg 88%
18:00 +17°C° 0.2 mm 2 m/S 758 mmHg 90%
19:00 +18°C° 0.2 mm 1 m/S 758 mmHg 91%
20:00 +18°C° 0.2 mm 1 m/S 758 mmHg 92%
21:00 +16°C° 0.4 mm 1 m/S 758 mmHg 93%
22:00 +16°C° 0.4 mm 2 m/S 759 mmHg 93%
23:00 +16°C° 0.4 mm 2 m/S 759 mmHg 93%

30 Oktober, Freitag

Zeit Temperatur Niederschläge Wind Luftdruck Luftfeuchtigkeit
00:00 +16°C° 0.2 mm 2 m/S 759 mmHg 93%
01:00 +16°C° 0.2 mm 2 m/S 759 mmHg 93%
02:00 +15°C° 0.2 mm 2 m/S 759 mmHg 93%
03:00 +15°C° 0 mm 2 m/S 759 mmHg 93%
04:00 +14°C° 0 mm 3 m/S 759 mmHg 93%
05:00 +14°C° 0 mm 3 m/S 759 mmHg 93%
06:00 +14°C° 0 mm 3 m/S 760 mmHg 89%
07:00 +16°C° 0 mm 3 m/S 760 mmHg 85%
08:00 +17°C° 0 mm 3 m/S 760 mmHg 82%
09:00 +18°C° 0 mm 4 m/S 760 mmHg 76%
10:00 +19°C° 0 mm 4 m/S 760 mmHg 70%
11:00 +20°C° 0 mm 5 m/S 760 mmHg 64%
12:00 +20°C° 0.5 mm 4 m/S 760 mmHg 69%
13:00 +20°C° 0.5 mm 4 m/S 760 mmHg 73%
14:00 +19°C° 0.5 mm 4 m/S 760 mmHg 77%
15:00 +19°C° 1.2 mm 4 m/S 761 mmHg 81%
16:00 +18°C° 1.2 mm 3 m/S 761 mmHg 85%
17:00 +17°C° 1.2 mm 2 m/S 761 mmHg 89%
18:00 +17°C° 0.8 mm 2 m/S 761 mmHg 90%
19:00 +18°C° 0.8 mm 1 m/S 762 mmHg 91%
20:00 +16°C° 0.8 mm 1 m/S 762 mmHg 92%
21:00 +16°C° 0.6 mm 1 m/S 762 mmHg 92%
22:00 +16°C° 0.6 mm 1 m/S 762 mmHg 92%
23:00 +15°C° 0.6 mm 1 m/S 762 mmHg 92%
Mehr zeigen